This demonstration page uses our WeatherBlox Daily Observations layout. Learn more.

Hourly Observations for December 13, 2016

Temp ( °F °C ) Dew Point ( °F °C ) Humidity (%) Winds ( mph kmh ) Pressure ( in mb ) Visibility ( mi km ) Precip ( " mm )
12:15 am 00:15 Partly Cloudy 13 -10.8 5 -14.9 72 72 NNE 12 19 30.33 1027 10 16.0934 0 0
12:35 am 00:35 Mostly Cloudy 13 -10.8 5 -14.9 72 72 N 13 20 30.33 1027 10 16.0934 0 0
12:55 am 00:55 Mostly Cloudy 12 -11.2 5 -15.1 73 73 N 13 20 30.36 1028 10 16.0934 0 0
1:15 am 01:15 Mostly Cloudy 12 -11.2 5 -15.2 73 73 N 14 22 30.36 1028 10 16.0934 0 0
1:35 am 01:35 Cloudy 12 -11.3 4 -15.3 73 73 N 15 24 30.39 1029 10 16.0934 0 0
1:55 am 01:55 Cloudy 11 -11.5 4 -15.6 72 72 N 15 24 30.42 1030 10 16.0934 0 0
2:15 am 02:15 Cloudy 11 -11.6 3 -16 70 70 N 15 24 30.42 1030 10 16.0934 0 0
2:35 am 02:35 Mostly Cloudy 11 -11.7 3 -16.2 70 70 N 16 26 30.39 1029 10 16.0934 0 0
2:55 am 02:55 Mostly Cloudy 11 -11.8 3 -16.2 70 70 N 13 20 30.39 1029 10 16.0934 0 0
3:15 am 03:15 Cloudy 10 -12 3 -16.1 72 72 N 12 19 30.39 1029 10 16.0934 0 0
3:35 am 03:35 Cloudy 10 -12.1 3 -16.2 72 72 N 17 28 30.39 1029 10 16.0934 0 0
3:55 am 03:55 Partly Cloudy 10 -12.4 2 -16.5 72 72 N 18 30 30.39 1029 10 16.0934 0 0
4:15 am 04:15 Partly Cloudy 9 -12.6 3 -16.3 74 74 N 14 22 30.39 1029 10 16.0934 0 0
4:35 am 04:35 Mostly Cloudy 9 -12.7 3 -16.3 75 75 N 16 26 30.39 1029 10 16.0934 0 0
4:55 am 04:55 Mostly Cloudy 9 -13 2 -16.5 75 75 N 15 24 30.42 1030 10 16.0934 0 0
5:15 am 05:15 Mostly Cloudy 8 -13.1 1 -17.1 72 72 N 13 20 30.42 1030 10 16.0934 0 0
5:35 am 05:35 Mostly Cloudy 8 -13.2 1 -17.4 71 71 N 12 19 30.48 1032 10 16.0934 0 0
5:55 am 05:55 Partly Cloudy 7 -13.7 -1 -18.1 70 70 N 10 17 30.48 1032 10 16.0934 0 0
6:15 am 06:15 Clear 7 -14 -1 -18.5 69 69 N 9 15 30.48 1032 10 16.0934 0 0
6:35 am 06:35 Clear 6 -14.2 -1 -18.6 70 70 N 7 11 30.48 1032 10 16.0934 0 0
6:55 am 06:55 Clear 6 -14.3 -2 -18.7 70 70 N 6 9 30.5 1033 10 16.0934 0 0
7:15 am 07:15 Clear 5 -14.8 -2 -18.8 72 72 N 7 11 30.5 1033 10 16.0934 0 0
7:35 am 07:35 Clear 5 -15 -2 -18.8 73 73 NNW 5 7 30.5 1033 10 16.0934 0 0
7:55 am 07:55 Sunny 5 -15 -2 -18.7 74 74 NNW 5 7 30.5 1033 10 16.0934 0 0
8:15 am 08:15 Sunny 4 -15.4 -2 -19 74 74 Calm 30.56 1035 10 16.0934 0 0
8:35 am 08:35 Sunny 4 -15.4 -2 -19 74 74 Calm 30.56 1035 10 16.0934 0 0
8:55 am 08:55 Sunny 6 -14.6 -1 -18.1 75 75 Calm 30.53 1034 10 16.0934 0 0
9:15 am 09:15 Sunny 7 -13.7 0 -17.8 71 71 WNW 3 6 30.53 1034 10 16.0934 0 0
9:35 am 09:35 Sunny 9 -12.9 1 -17.3 70 70 NW 7 11 30.53 1034 10 16.0934 0 0
9:55 am 09:55 Sunny 10 -12 1 -17 67 67 NNW 8 13 30.5 1033 10 16.0934 0 0
10:15 am 10:15 Sunny 11 -11.4 2 -16.6 66 66 N 3 6 30.5 1033 10 16.0934 0 0
10:35 am 10:35 Sunny 12 -11 2 -16.5 64 64 NNE 5 7 30.5 1033 10 16.0934 0 0
10:55 am 10:55 Sunny 12 -11 2 -16.5 64 64 Calm 30.5 1033 10 16.0934 0 0
11:15 am 11:15 Sunny 14 -10.2 3 -16.1 62 62 Calm 30.5 1033 10 16.0934 0 0
11:35 am 11:35 Sunny 15 -9.3 3 -16 59 59 Calm 30.48 1032 10 16.0934 0 0
11:55 am 11:55 Sunny 17 -8.4 4 -15.7 56 56 Calm 30.45 1031 10 16.0934 0 0
12:15 pm 12:15 Sunny 17 -8.3 4 -15.7 56 56 Calm 30.42 1030 10 16.0934 0 0
12:35 pm 12:35 Sunny 18 -7.9 4 -15.7 54 54 Calm 30.42 1030 10 16.0934 0 0
12:55 pm 12:55 Sunny 19 -7.4 4 -15.7 52 52 Calm 30.39 1029 10 16.0934 0 0
1:15 pm 13:15 Sunny 20 -6.5 4 -15.3 50 50 WSW 5 7 30.39 1029 10 16.0934 0 0
1:35 pm 13:35 Sunny 21 -6.3 4 -15.4 49 49 SSW 5 7 30.36 1028 10 16.0934 0 0
2:15 pm 14:15 Sunny 22 -5.6 3 -15.9 44 44 SW 7 11 30.33 1027 10 16.0934 0 0
3:15 pm 15:15 Sunny 23 -5.1 2 -16.8 40 40 SSW 5 7 30.27 1025 10 16.0934 0 0
3:35 pm 15:35 Sunny 23 -5.1 2 -16.5 41 41 SSW 3 6 30.27 1025 10 16.0934 0 0
4:35 pm 16:35 Sunny 22 -5.5 2 -16.5 42 42 SW 6 9 30.3 1026 10 16.0934 0 0
5:15 pm 17:15 Clear 20 -6.6 2 -16.4 46 46 S 6 9 30.3 1026 10 16.0934 0 0
5:55 pm 17:55 Clear 18 -7.6 2 -16.4 50 50 S 3 6 30.3 1026 10 16.0934 0 0
6:35 pm 18:35 Clear 15 -9.7 2 -16.9 56 56 S 5 7 30.33 1027 10 16.0934 0 0
6:55 pm 18:55 Clear 14 -10.1 1 -17 57 57 SSE 3 6 30.33 1027 10 16.0934 0 0
7:15 pm 19:15 Clear 14 -9.8 2 -16.5 58 58 S 6 9 30.33 1027 10 16.0934 0 0
7:35 pm 19:35 Clear 13 -10.7 2 -16.9 61 61 Calm 30.33 1027 10 16.0934 0 0
7:55 pm 19:55 Clear 11 -11.9 1 -17.3 65 65 S 5 7 30.36 1028 10 16.0934 0 0
8:15 pm 20:15 Clear 15 -9.7 3 -16.2 59 59 S 7 11 30.33 1027 10 16.0934 0 0
8:35 pm 20:35 Clear 15 -9.2 2 -16.5 56 56 S 3 6 30.33 1027 10 16.0934 0 0
8:55 pm 20:55 Clear 12 -11 2 -16.8 63 63 S 6 9 30.33 1027 10 16.0934 0 0
9:15 pm 21:15 Clear 13 -10.8 2 -16.6 63 63 S 5 7 30.33 1027 10 16.0934 0 0
9:35 pm 21:35 Clear 13 -10.7 2 -16.6 62 62 SSE 3 6 30.33 1027 10 16.0934 0 0
9:55 pm 21:55 Clear 11 -11.5 2 -16.4 67 67 S 6 9 30.36 1028 10 16.0934 0 0
10:15 pm 22:15 Clear 11 -11.7 2 -16.5 68 68 S 8 13 30.36 1028 10 16.0934 0 0
10:35 pm 22:35 Clear 12 -11.2 4 -15.8 69 69 S 7 11 30.36 1028 10 16.0934 0 0
10:55 pm 22:55 Clear 12 -11.1 4 -15.7 69 69 S 5 7 30.36 1028 10 16.0934 0 0
11:15 pm 23:15 Clear 13 -10.7 4 -15.6 68 68 SSE 3 6 30.33 1027 10 16.0934 0 0
11:35 pm 23:35 Clear 12 -11.1 4 -15.6 70 70 S 6 9 30.36 1028 10 16.0934 0 0
11:55 pm 23:55 Clear 14 -9.8 4 -15.3 65 65 S 8 13 30.33 1027 10 16.0934 0 0

Powered by AerisWeather